STARLINK-1329, 45531

Orbit data source: Space-Track

STARLINK-1329, 45531 is a payload satellite owned by SpaceX/Seattle (US) in LEO that was launched on Wed, 22 Apr 2020 UTC via an FALCON 9 launch vehicle from the Air Force Eastern Test Range (AFETR). Payloads include a variety of satellites, spacecraft, and rockets equipped with specific instruments for various scientific and technological missions. These include communications satellites like Starlink; space stations such as the ISS; scientific satellites like the Hubble; Earth observation satellites from companies like Planet Labs, Umbra, and HawkEye 360; GPS; miniature CubeSats for education and research; and military/defense satellites.

Loading next visibility...
STARLINK-1329 details
Identifier
45531, 2020-025A
Orbit
LEO
Last TLE update10 hours ago
Origin
Flag of USSpaceX/Seattle (US)
ManufacturerSpaceX/Seattle
MissionOperational Commercial Communications
Bus & MotorSTARLINK, Unknown motor
Mass260 kg wet, ~248 kg dry
Launch date (UTC)
2020-04-22 (5 years ago)
Launch vehicle
FALCON 9
Launch site
Air Force Eastern Test Range (AFETR)
Object type
Payload
Rocket body
Debris
Shape & HBRBox + 1 Pan, 8.86 m
Radar Cross Section13.562 m², Large (>1 m²)

Expand to show TLE details & history

TLE from 10 hours ago
0 STARLINK-1329
1 45531U 20025A   24361.07081979  .00028628  00000-0  19315-2 0  9991
2 45531  53.0546 275.6558 0001263  88.7516 271.3618 15.06428733258381
Epoch: 2024-12-26T01:41Z
Definitive object data (Epoch: 2024-12-26T01:41:58.829Z)
Latitude-0.00001°
Longitude155.10518°
Altitude547.982 km
Speed7.589 km/s
True Right ascension18h 22m 37s
True Declination0° 00' 00"
Sunlit
Object was in daylight at TLE epoch
Visualization TLE readout
Latitude-1.03952°
Longitude152.54104°
Altitude548.09 km
Speed7.589 km/s
Apparent Right ascension19h 58m 53s
Apparent Declination-22° 48' 09"
Sunlit
Object is in daylight
Visualization observer readout
Local Sidereal Time10:36:10
Azimuth74.65° E
Elevation-52.717°
Doppler factor1
Orbital elements
Apogee altitude548.269 km
Perigee altitude546.52 km
Semi-major axis6,925.531 km
Eccentricity0.0001263
Inclination53.0546°
RAAN275.6558°
Arg. of periapsis88.7516°
True anomaly271.34733°
Mean anomaly271.3618°
Eccentric anomaly271.35457°
Mean motion3.76585 °/min
BSTAR0.0019315
Orbital period95.6 mins
Loading maneuver chart data...
Loading historical data...
Loading historical data...
Loading historical data...
Loading historical data...
Loading historical data...
Loading historical data...
Loading historical data...

STARLINK-1329 Visibility forecast

Observer location: undefined°, undefined

Span
Click to sort rows by Start time (UTC) header in descending order
Start Az.
Max El. time (UTC)
Max El. Az.
Max El.
End time (UTC)
End Az.
7 mins2024-12-26 20:57:51.440Z216.926° SW2024-12-26 21:01:51.440Z133.464° SE41.546°2024-12-26 21:04:51.440Z58.846° ENE
5 mins2024-12-26 22:39:51.440Z296.722° NW2024-12-26 22:41:51.440Z340.943° N23.183°2024-12-26 22:44:51.440Z30.441° NE
4 mins2024-12-27 02:01:51.440Z354.127° N2024-12-27 02:02:51.440Z11.994° NNE16.916°2024-12-27 02:05:51.440Z60.23° ENE
6 mins2024-12-27 03:40:51.440Z321.068° NNW2024-12-27 03:42:51.440Z1.199° NNE40.029°2024-12-27 03:46:51.440Z117.327° SE
4 mins2024-12-27 05:20:51.440Z261.239° W2024-12-27 05:22:51.440Z225.222° WSW16.988°2024-12-27 05:24:51.440Z193.789° SSW
|